Weather History for Orlando, FL

Change the Weather History Date:

Sunday, October 2, 2011

  Actual Average Record
Temperature  
Mean Temperature 72 °F -  
Max Temperature 82 °F 84 °F 91 °F (1998)
Min Temperature 62 °F 70 °F 60 °F (2001)
Cooling Degree Days 7    
Growing Degree Days 22 (Base 50)    
Moisture  
Dew Point 50 °F    
Average Humidity 46    
Maximum Humidity 67    
Minimum Humidity 33    
Precipitation  
Precipitation 0.00 in - - ()
Sea Level Pressure  
Sea Level Pressure 30.01 in    
Wind  
Wind Speed 6 mph (NNW)    
Max Wind Speed 8 mph    
Max Gust Speed -    
Visibility 10 miles    
Events      
Averages and records for this station are not official NWS values.
T = Trace of Precipitation, MM = Missing Value Source: NWS Daily Summary

Daily Weather History Graph

Daily Weather History Graph

Search for Another Location

Airport:

Trip Planner

Search our weather history database for the weather conditions in past years. The results will help you decide how hot, cold, wet, or windy it might be!

Date:

Astronomy

Oct. 02, 2011 Rise Set
Actual Time 7:18 AM EDT 7:10 PM EDT
Civil Twilight 6:55 AM EDT 7:33 PM EDT
Nautical Twilight 6:27 AM EDT 8:01 PM EDT
Astronomical Twilight 6:00 AM EDT 8:28 PM EDT
Moon 12:56 PM EDT (10/2) 11:34 PM EDT (10/2)
Length of Visible Light 12h 38m
Length of Day
11h 51m
Waxing Crescent, 34% of the Moon is Illuminated
Oct 2
Waxing Crescent
Oct 3
First Quarter
Oct 11
Full
Oct 19
Last Quarter
Oct 26
New

Hourly Weather History & Observations

Time (EDT) Temp. Dew Point Humidity Pressure Visibility Wind Dir Wind Speed Gust Speed Precip Events Conditions
12:53 AM 69.1 °F 48.0 °F 47% 29.99 in 10.0 mi North 8.1 mph - N/A   Clear
1:53 AM 66.9 °F 48.0 °F 51% 29.99 in 10.0 mi North 6.9 mph - N/A   Clear
3:53 AM 66.0 °F 46.0 °F 48% 29.98 in 10.0 mi North 6.9 mph - N/A   Clear
4:53 AM 64.0 °F 46.0 °F 52% 29.98 in 10.0 mi North 8.1 mph - N/A   Clear
5:53 AM 63.0 °F 48.0 °F 58% 29.99 in 10.0 mi North 5.8 mph - N/A   Clear
6:53 AM 62.1 °F 48.9 °F 62% 30.00 in 10.0 mi North 5.8 mph - N/A   Clear
7:53 AM 62.1 °F 51.1 °F 67% 30.01 in 10.0 mi NNW 3.5 mph - N/A   Clear
10:53 AM 75.0 °F 54.0 °F 48% 30.06 in 10.0 mi North 4.6 mph - N/A   Clear
12:53 PM 79.0 °F 50.0 °F 36% 30.04 in 10.0 mi NE 3.5 mph - N/A   Clear
2:53 PM 80.1 °F 51.1 °F 36% 30.00 in 10.0 mi SW 4.6 mph - N/A   Clear
3:53 PM 82.0 °F 50.0 °F 33% 29.99 in 10.0 mi WNW 8.1 mph - N/A   Clear
4:53 PM 81.0 °F 52.0 °F 36% 29.99 in 10.0 mi Variable 6.9 mph - N/A   Clear
5:53 PM 80.1 °F 51.1 °F 36% 29.99 in 10.0 mi Variable 3.5 mph - N/A   Clear
6:53 PM 77.0 °F 50.0 °F 39% 30.00 in 10.0 mi West 6.9 mph - N/A   Clear
7:53 PM 75.0 °F 46.9 °F 37% 30.01 in 10.0 mi WNW 4.6 mph - N/A   Clear
8:53 PM 73.9 °F 48.0 °F 40% 30.03 in 10.0 mi WNW 4.6 mph - N/A   Clear
9:53 PM 73.0 °F 51.1 °F 46% 30.06 in 10.0 mi NW 6.9 mph - N/A   Clear
10:53 PM 69.1 °F 52.0 °F 54% 30.07 in 10.0 mi NW 4.6 mph - N/A   Clear
11:53 PM 69.1 °F 52.0 °F 54% 30.07 in 10.0 mi NW 5.8 mph - N/A   Clear